Regional Weather Roundup
Issued by NWS

Home | Current Version | Previous Version | Text Only | Print | Product List | Glossary On
Versions: 1 2 3 4 5 6 7 8 9 10 11 12 13 14 15 16 17 18 19 20 21 22 23 24 25 26 27 28 29 30 31 32 33 34 35 36 37 38 39 40 41 42 43 44 45 46 47 48 49 50
000
ASUS44 KOUN 300510
RWROK

WEATHER ROUNDUP FOR OKLAHOMA
NATIONAL WEATHER SERVICE NORMAN OK
1200 AM CDT SAT MAY 30 2015

NOTE: "FAIR" INDICATES FEW OR NO CLOUDS BELOW 12,000 FEET WITH NO
      SIGNIFICANT WEATHER AND/OR OBSTRUCTIONS TO VISIBILITY.

OKZ001>007-009>012-014-015-017-300600-
NORTHWEST OKLAHOMA AND THE PANHANDLE

CITY           SKY/WX    TMP DP  RH WIND       PRES   REMARKS
GAGE           PTCLDY    63  58  83 N14       30.10R
GUYMON         CLOUDY    61  52  72 N14       30.18R
ENID/WOODRING  CLEAR     64  64 100 CALM      30.00R
$$

OKZ016-021>023-033>039-044-045-300600-
SOUTHWEST OKLAHOMA

CITY           SKY/WX    TMP DP  RH WIND       PRES   REMARKS
LAWTON/REGL    PTCLDY    70  66  87 SE3       30.00R
LAWTON/FT SILL CLEAR     69  67  92 SE3       29.99S
FREDERICK      CLEAR     71  66  84 SE5       29.97S
CLINTON        LGT RAIN  67  61  81 NW5       30.06R
HOBART         CLEAR     69  63  81 E3        30.03R
ALTUS AFB      CLEAR     71  64  78 N6        30.01R
$$

OKZ018>020-024>031-300600-
CENTRAL OKLAHOMA

CITY           SKY/WX    TMP DP  RH WIND       PRES   REMARKS
OKLAHOMA CITY  PTCLDY    66  64  93 SW3       30.00R
OKC/WILEY POST CLEAR     67  64  90 CALM      30.01R
OKC/TINKER AFB CLEAR     67  65  94 S3        29.99S
STILLWATER     PTCLDY    66  64  93 CALM      30.00R
GUTHRIE        CLEAR     66  65  96 CALM      30.00R
$$

OKZ008-013-054>072-300600-
NORTHEAST OKLAHOMA

CITY           SKY/WX    TMP DP  RH WIND       PRES   REMARKS
TULSA          CLOUDY    64  64 100 N5        29.97S
TULSA/JONES    CLOUDY    65  64  97 N3        29.97F
PONCA CITY     MOCLDY    67  66  97 SE8       29.99S
BARTLESVILLE   CLOUDY    62  62 100 CALM      29.99S FOG
MUSKOGEE       CLOUDY    67  64  90 NW7       29.97R
$$

OKZ032-040>043-046>053-073>077-300600-
SOUTH CENTRAL/SOUTHEAST OKLAHOMA

CITY           SKY/WX    TMP DP  RH WIND       PRES   REMARKS
ARDMORE/DWNTWN CLEAR     64  63  94 CALM      29.99S
MCALESTER      CLOUDY    67  65  93 NW5       29.98R
$$




USA.gov is the U.S. government's official web portal to all federal, state and local government web resources and services.